When you browse on this site, cookies collect data to enhance your experience and personalize the content and advertising you see.
Visit our Privacy Policy to learn more. By continuing to use the site, you agree to this use of cookies and data.
  • în România
  • Lista ţărilor
  • Pe 7 zile
  • Temperatura apei
  • Hartă satelitară
  • Meteo pe hartă
  • Widget-uri
  • user-avatar
    Intrare

    Meteo pe oră la Guduvancheri

    Astăzi, 21 Iulie, Duminică

    Timp Temperatura Precipitaţii Vânt Presiune Umiditate
    00:00 +31°C° 0.4 mm 3 m/s 749 mmHg 71%
    01:00 +31°C° 0.4 mm 3 m/s 749 mmHg 70%
    02:00 +30°C° 0.4 mm 3 m/s 748 mmHg 70%
    03:00 +30°C° 0.1 mm 3 m/s 748 mmHg 70%
    04:00 +30°C° 0.1 mm 4 m/s 748 mmHg 69%
    05:00 +30°C° 0 mm 2 m/s 748 mmHg 70%
    06:00 +31°C° 0 mm 3 m/s 749 mmHg 65%
    07:00 +32°C° 0 mm 4 m/s 749 mmHg 61%
    08:00 +33°C° 0 mm 5 m/s 750 mmHg 57%
    09:00 +34°C° 0 mm 4 m/s 750 mmHg 54%
    10:00 +35°C° 0 mm 4 m/s 750 mmHg 50%
    11:00 +37°C° 0 mm 4 m/s 749 mmHg 45%
    12:00 +38°C° 0 mm 3 m/s 749 mmHg 43%
    13:00 +38°C° 0 mm 3 m/s 748 mmHg 41%
    14:00 +39°C° 0 mm 3 m/s 748 mmHg 39%
    15:00 +37°C° 0.2 mm 4 m/s 747 mmHg 46%
    16:00 +35°C° 0.2 mm 5 m/s 747 mmHg 53%
    17:00 +33°C° 0.2 mm 5 m/s 747 mmHg 60%
    18:00 +33°C° 0.4 mm 5 m/s 747 mmHg 63%
    19:00 +33°C° 0.4 mm 4 m/s 748 mmHg 66%
    20:00 +32°C° 0.4 mm 4 m/s 749 mmHg 69%
    21:00 +31°C° 0.6 mm 3 m/s 749 mmHg 71%
    22:00 +31°C° 0.6 mm 3 m/s 749 mmHg 72%
    23:00 +31°C° 0.6 mm 3 m/s 749 mmHg 73%

    Mâine, 22 Iulie, Luni

    Timp Temperatura Precipitaţii Vânt Presiune Umiditate
    00:00 +31°C° 0.1 mm 3 m/s 748 mmHg 72%
    01:00 +31°C° 0.1 mm 3 m/s 748 mmHg 71%
    02:00 +31°C° 0.1 mm 3 m/s 748 mmHg 69%
    03:00 +30°C° 0.6 mm 3 m/s 748 mmHg 70%
    04:00 +30°C° 0.6 mm 3 m/s 748 mmHg 71%
    05:00 +30°C° 0.6 mm 3 m/s 748 mmHg 72%
    06:00 +30°C° 0.8 mm 3 m/s 748 mmHg 73%
    07:00 +30°C° 0.8 mm 3 m/s 749 mmHg 74%
    08:00 +30°C° 0.8 mm 3 m/s 749 mmHg 75%
    09:00 +30°C° 1.2 mm 4 m/s 749 mmHg 75%
    10:00 +30°C° 1.2 mm 4 m/s 749 mmHg 74%
    11:00 +30°C° 1.2 mm 4 m/s 749 mmHg 74%
    12:00 +29°C° 0.7 mm 5 m/s 749 mmHg 77%
    13:00 +29°C° 0.7 mm 5 m/s 748 mmHg 80%
    14:00 +28°C° 0.7 mm 5 m/s 747 mmHg 83%
    15:00 +28°C° 2.2 mm 5 m/s 747 mmHg 85%
    16:00 +28°C° 2.2 mm 5 m/s 747 mmHg 87%
    17:00 +27°C° 2.2 mm 5 m/s 747 mmHg 90%
    18:00 +27°C° 3 mm 5 m/s 748 mmHg 91%
    19:00 +27°C° 3 mm 5 m/s 748 mmHg 92%
    20:00 +27°C° 3 mm 5 m/s 749 mmHg 93%
    21:00 +27°C° 4.3 mm 6 m/s 749 mmHg 93%
    22:00 +26°C° 4.3 mm 6 m/s 748 mmHg 93%
    23:00 +26°C° 4.3 mm 6 m/s 748 mmHg 92%

    Poimâine, 23 Iulie, Marţi

    Timp Temperatura Precipitaţii Vânt Presiune Umiditate
    00:00 +26°C° 4.6 mm 6 m/s 748 mmHg 93%
    01:00 +26°C° 4.6 mm 6 m/s 747 mmHg 93%
    02:00 +26°C° 4.6 mm 6 m/s 747 mmHg 94%
    03:00 +26°C° 7.6 mm 6 m/s 747 mmHg 94%
    04:00 +26°C° 7.6 mm 6 m/s 747 mmHg 94%
    05:00 +26°C° 7.6 mm 5 m/s 747 mmHg 95%
    06:00 +26°C° 5.5 mm 5 m/s 747 mmHg 94%
    07:00 +26°C° 5.5 mm 5 m/s 748 mmHg 93%
    08:00 +26°C° 5.5 mm 6 m/s 748 mmHg 93%
    09:00 +26°C° 1.1 mm 6 m/s 748 mmHg 91%
    10:00 +27°C° 1.1 mm 6 m/s 748 mmHg 88%
    11:00 +27°C° 1.1 mm 6 m/s 748 mmHg 86%
    12:00 +27°C° 0.2 mm 6 m/s 748 mmHg 86%
    13:00 +27°C° 0.2 mm 6 m/s 748 mmHg 85%
    14:00 +27°C° 0.2 mm 6 m/s 747 mmHg 84%
    15:00 +27°C° 0.1 mm 5 m/s 747 mmHg 82%
    16:00 +28°C° 0.1 mm 5 m/s 747 mmHg 80%
    17:00 +28°C° 0.1 mm 5 m/s 747 mmHg 78%
    18:00 +28°C° 0 mm 4 m/s 748 mmHg 78%
    19:00 +28°C° 0 mm 4 m/s 748 mmHg 79%
    20:00 +28°C° 0 mm 4 m/s 749 mmHg 80%
    21:00 +28°C° 0 mm 4 m/s 749 mmHg 80%
    22:00 +28°C° 0 mm 4 m/s 749 mmHg 79%
    23:00 +28°C° 0 mm 3 m/s 749 mmHg 79%

    24 Iulie, Miercuri

    Timp Temperatura Precipitaţii Vânt Presiune Umiditate
    00:00 +27°C° 0 mm 3 m/s 749 mmHg 80%
    01:00 +27°C° 0 mm 3 m/s 748 mmHg 81%
    02:00 +27°C° 0 mm 3 m/s 748 mmHg 83%
    03:00 +27°C° 0 mm 4 m/s 748 mmHg 82%
    04:00 +27°C° 0 mm 4 m/s 748 mmHg 82%
    05:00 +27°C° 0 mm 5 m/s 748 mmHg 81%
    06:00 +28°C° 0 mm 5 m/s 749 mmHg 77%
    07:00 +29°C° 0 mm 6 m/s 749 mmHg 72%
    08:00 +30°C° 0 mm 6 m/s 750 mmHg 68%
    09:00 +32°C° 0 mm 6 m/s 750 mmHg 62%
    10:00 +34°C° 0 mm 6 m/s 750 mmHg 57%
    11:00 +35°C° 0 mm 6 m/s 750 mmHg 52%
    12:00 +36°C° 0 mm 6 m/s 749 mmHg 51%
    13:00 +36°C° 0 mm 6 m/s 748 mmHg 50%
    14:00 +36°C° 0 mm 6 m/s 748 mmHg 49%
    15:00 +36°C° 0 mm 5 m/s 747 mmHg 51%
    16:00 +35°C° 0 mm 5 m/s 747 mmHg 52%
    17:00 +35°C° 0 mm 5 m/s 747 mmHg 54%
    18:00 +34°C° 0.1 mm 5 m/s 748 mmHg 59%
    19:00 +33°C° 0.1 mm 4 m/s 749 mmHg 65%
    20:00 +32°C° 0.1 mm 4 m/s 750 mmHg 70%
    21:00 +32°C° 0.7 mm 5 m/s 750 mmHg 71%
    22:00 +32°C° 0.7 mm 5 m/s 750 mmHg 71%
    23:00 +30°C° 0.7 mm 5 m/s 750 mmHg 72%

    25 Iulie, Joi

    Timp Temperatura Precipitaţii Vânt Presiune Umiditate
    00:00 +30°C° 0.1 mm 5 m/s 750 mmHg 73%
    01:00 +30°C° 0.1 mm 5 m/s 749 mmHg 74%
    02:00 +29°C° 0.1 mm 4 m/s 749 mmHg 76%
    03:00 +29°C° 0 mm 4 m/s 749 mmHg 76%
    04:00 +29°C° 0 mm 3 m/s 749 mmHg 76%
    05:00 +29°C° 0 mm 2 m/s 750 mmHg 76%
    06:00 +30°C° 0 mm 3 m/s 750 mmHg 70%
    07:00 +32°C° 0 mm 4 m/s 751 mmHg 65%
    08:00 +33°C° 0 mm 5 m/s 752 mmHg 60%
    09:00 +34°C° 0 mm 5 m/s 752 mmHg 56%
    10:00 +35°C° 0 mm 5 m/s 752 mmHg 52%
    11:00 +36°C° 0 mm 5 m/s 751 mmHg 49%
    12:00 +37°C° 0 mm 5 m/s 751 mmHg 47%
    13:00 +37°C° 0 mm 5 m/s 750 mmHg 46%
    14:00 +37°C° 0 mm 5 m/s 749 mmHg 45%
    15:00 +36°C° 0.1 mm 5 m/s 749 mmHg 50%
    16:00 +35°C° 0.1 mm 5 m/s 749 mmHg 55%
    17:00 +34°C° 0.1 mm 5 m/s 749 mmHg 60%
    18:00 +34°C° 0.1 mm 5 m/s 749 mmHg 64%
    19:00 +33°C° 0.1 mm 5 m/s 750 mmHg 67%
    20:00 +32°C° 0.1 mm 5 m/s 751 mmHg 70%
    21:00 +32°C° 0.6 mm 5 m/s 751 mmHg 70%
    22:00 +32°C° 0.6 mm 5 m/s 751 mmHg 71%
    23:00 +32°C° 0.6 mm 5 m/s 751 mmHg 71%

    26 Iulie, Vineri

    Timp Temperatura Precipitaţii Vânt Presiune Umiditate
    00:00 +30°C° 0.3 mm 5 m/s 751 mmHg 72%
    01:00 +30°C° 0.3 mm 4 m/s 750 mmHg 73%
    02:00 +30°C° 0.3 mm 4 m/s 750 mmHg 74%
    03:00 +30°C° 0 mm 4 m/s 750 mmHg 73%
    04:00 +30°C° 0 mm 3 m/s 750 mmHg 73%
    05:00 +29°C° 0 mm 3 m/s 750 mmHg 72%
    06:00 +30°C° 0 mm 4 m/s 751 mmHg 68%
    07:00 +32°C° 0 mm 4 m/s 751 mmHg 64%
    08:00 +33°C° 0 mm 4 m/s 752 mmHg 60%
    09:00 +33°C° 0 mm 5 m/s 752 mmHg 59%
    10:00 +33°C° 0 mm 5 m/s 752 mmHg 58%
    11:00 +34°C° 0 mm 5 m/s 752 mmHg 57%
    12:00 +35°C° 0 mm 5 m/s 751 mmHg 54%
    13:00 +36°C° 0 mm 5 m/s 750 mmHg 50%
    14:00 +37°C° 0 mm 5 m/s 749 mmHg 47%
    15:00 +36°C° 0 mm 5 m/s 749 mmHg 49%
    16:00 +36°C° 0 mm 4 m/s 749 mmHg 51%
    17:00 +35°C° 0 mm 4 m/s 749 mmHg 53%
    18:00 +34°C° 0 mm 4 m/s 750 mmHg 56%
    19:00 +33°C° 0 mm 4 m/s 751 mmHg 59%
    20:00 +33°C° 0 mm 4 m/s 751 mmHg 62%
    21:00 +32°C° 0.1 mm 4 m/s 751 mmHg 63%
    22:00 +32°C° 0.1 mm 4 m/s 751 mmHg 64%
    23:00 +30°C° 0.1 mm 3 m/s 751 mmHg 65%
    Arată mai mult